FW9176 Weather Reports


Display with metric or nautical units.
time (UTC)temp
F
wind
direction
speed
MPH
gust
MPH
rain 1hr
in
rain 24hr
in
rain mn
in
humidity
%
barometer
mb
20260905084604 78 0 0.0 0.0 0.00 0.00 0.00 82 1010.0
20260905083102 78 0 0.0 0.0 0.00 0.00 0.00 82 1009.9
20260905081605 78 0 0.0 0.0 0.00 0.00 0.00 82 1009.9
20260905080110 78 0 0.0 0.0 0.00 0.00 0.00 81 1009.8
20260905074558 78 0 0.0 0.0 0.00 0.00 0.00 81 1009.9
20260905073104 78 0 0.0 0.0 0.00 0.00 0.00 81 1009.8
20260905071611 79 0 0.0 0.0 0.00 0.00 0.00 80 1009.9
20260905070059 79 0 0.0 0.0 0.00 0.00 0.00 80 1010.0
20260905064606 79 0 0.0 0.0 0.00 0.00 0.00 79 1010.3
20260905063100 80 0 0.0 0.0 0.00 0.00 0.00 78 1010.2
20260905061601 80 0 0.0 0.0 0.00 0.00 0.00 78 1010.4
20260905060107 80 0 0.0 0.0 0.00 0.00 0.00 77 1010.3
20260905054602 80 0 0.0 0.0 0.00 0.00 0.00 76 1010.2
20260905053108 81 0 0.0 0.0 0.00 0.00 0.00 76 1010.4
20260905051559 81 0 0.0 0.0 0.00 0.00 0.00 76 1010.4
20260905050059 81 0 0.0 0.0 0.00 0.00 0.00 75 1010.4
20260905044601 81 0 0.0 0.0 0.00 0.00 0.00 75 1010.5
20260905043102 82 0 0.0 2.0 0.00 0.00 0.00 74 1010.7
20260905041600 83 0 0.0 1.0 0.00 0.00 0.00 73 1010.7
20260905040105 84 0 0.0 0.0 0.00 0.00 0.00 75 1010.3
20260905034617 84 0 0.0 0.0 0.00 0.00 0.00 74 1010.3
20260905033118 84 0 0.0 0.0 0.00 0.00 0.00 75 1010.5
20260905031612 84 0 0.0 0.0 0.00 0.00 0.00 74 1010.9
20260905030106 85 0 0.0 0.0 0.00 0.00 0.00 74 1011.0
20260905024557 85 0 0.0 0.0 0.00 0.00 0.00 74 1011.0
20260905023125 86 0 0.0 0.0 0.00 0.00 0.00 73 1010.9
20260905021600 86 0 0.0 1.0 0.00 0.00 0.00 72 1010.8
20260905014601 86 0 0.0 0.0 0.00 0.00 0.00 71 1010.6
20260905013100 87 0 0.0 0.0 0.00 0.00 0.00 71 1010.5
20260905011602 87 0 0.0 0.0 0.00 0.00 0.00 71 1010.4
20260905010110 88 0 0.0 0.0 0.00 0.00 0.00 70 1010.1
20260905004630 88 0 0.0 1.0 0.00 0.00 0.00 69 1010.1
20260905003120 89 0 0.0 0.0 0.00 0.00 0.00 68 1009.9
20260905001603 90 0 0.0 3.0 0.00 0.00 0.00 66 1009.8
20260905000132 91 0 0.0 3.0 0.00 0.00 0.00 64 1009.6
20260904234600 92 0 0.0 1.0 0.00 0.00 0.00 62 1009.7
20260904233058 93 0 0.0 2.0 0.00 0.00 0.00 60 1009.8
20260904231602 93 0 0.0 4.0 0.00 0.00 0.00 61 1009.9
20260904230114 92 283 0.0 3.0 0.00 0.00 0.00 61 1009.9
20260904224600 92 288 0.0 5.0 0.00 0.00 0.00 61 1009.9
20260904223056 93 304 1.0 7.0 0.00 0.00 0.00 59 1010.0
20260904221557 93 0 0.0 3.0 0.00 0.00 0.00 60 1009.9
20260904220106 93 255 0.0 4.0 0.00 0.00 0.00 59 1009.9
20260904214558 93 243 0.0 3.0 0.00 0.00 0.00 60 1010.0
20260904213058 93 271 0.0 5.0 0.00 0.00 0.00 60 1009.8
20260904211603 92 160 1.0 6.0 0.00 0.00 0.00 61 1009.9
20260904210058 92 229 2.0 8.0 0.00 0.00 0.00 61 1009.7
20260904204559 92 151 0.0 2.0 0.00 0.00 0.00 60 1010.1
20260904203101 92 0 0.0 4.0 0.00 0.00 0.00 61 1010.4
20260904201614 91 0 0.0 7.0 0.00 0.00 0.00 62 1010.6
20260904200100 90 0 1.0 9.0 0.00 0.00 0.00 62 1010.9
20260904194555 90 150 1.0 7.0 0.00 0.00 0.00 63 1011.0
20260904193100 90 184 1.0 7.0 0.00 0.00 0.00 62 1011.3
20260904191556 90 159 0.0 10.0 0.00 0.00 0.00 61 1011.4
20260904190058 90 116 1.0 7.0 0.00 0.00 0.00 62 1011.7
20260904184602 89 0 1.0 9.0 0.00 0.00 0.00 61 1011.9
20260904183115 89 0 0.0 4.0 0.00 0.00 0.00 59 1011.8
20260904181556 87 74 1.0 6.0 0.00 0.00 0.00 60 1011.9
20260904180103 87 86 1.0 4.0 0.00 0.00 0.00 61 1012.7
20260904174601 86 77 0.0 3.0 0.00 0.00 0.00 64 1013.3
20260904173101 84 131 0.0 4.0 0.00 0.00 0.00 65 1013.7
20260904171614 84 65 1.0 4.0 0.00 0.00 0.00 64 1014.0
20260904170125 83 128 2.0 4.0 0.00 0.00 0.00 64 1014.1
20260904164619 82 0 0.0 4.0 0.00 0.00 0.00 67 1014.4
20260904163101 81 53 1.0 7.0 0.00 0.00 0.00 67 1014.5
20260904161559 81 41 2.0 5.0 0.00 0.00 0.00 68 1014.7
20260904160059 83 52 2.0 4.0 0.00 0.00 0.00 67 1014.3
20260904154559 82 53 1.0 3.0 0.00 0.00 0.00 71 1014.1
20260904153109 82 62 0.0 3.0 0.00 0.00 0.00 73 1013.7
20260904151601 82 0 0.0 3.0 0.00 0.00 0.00 74 1013.5
20260904150058 82 59 0.0 2.0 0.00 0.00 0.00 74 1013.2
20260904144559 83 0 0.0 0.0 0.00 0.00 0.00 73 1013.0
20260904143106 82 0 0.0 1.0 0.00 0.00 0.00 73 1013.0
20260904141602 82 0 0.0 2.0 0.00 0.00 0.00 75 1012.9
20260904140100 82 0 0.0 2.0 0.00 0.00 0.00 74 1012.7
20260904134601 81 0 0.0 0.0 0.00 0.00 0.00 73 1012.5
20260904133100 80 0 0.0 0.0 0.00 0.00 0.00 74 1012.2
20260904131612 79 0 0.0 0.0 0.00 0.00 0.00 76 1012.3
20260904130056 78 0 0.0 0.0 0.00 0.00 0.00 78 1012.0
20260904124559 78 0 0.0 0.0 0.00 0.00 0.00 79 1011.9
20260904123100 77 0 0.0 0.0 0.00 0.00 0.00 80 1011.7
20260904121601 77 0 0.0 0.0 0.00 0.00 0.00 79 1011.2
20260904120103 77 0 0.0 0.0 0.00 0.00 0.00 79 1010.9
20260904114606 77 0 0.0 0.0 0.00 0.00 0.00 78 1010.6
20260904113100 77 0 0.0 0.0 0.00 0.00 0.00 78 1010.4
20260904111558 78 0 0.0 0.0 0.00 0.00 0.00 77 1010.4
20260904104601 78 0 0.0 2.0 0.00 0.00 0.00 76 1009.9
20260904103112 78 0 0.0 0.0 0.00 0.00 0.00 76 1009.9
20260904101610 79 136 0.0 2.0 0.00 0.00 0.00 76 1010.0
20260904100111 78 0 0.0 1.0 0.00 0.00 0.00 77 1009.8
20260904094611 78 0 0.0 1.0 0.00 0.00 0.00 78 1009.7
20260904093108 78 0 0.0 0.0 0.00 0.00 0.00 79 1009.9
20260904091611 78 0 0.0 0.0 0.00 0.00 0.00 79 1010.2
20260904090057 78 0 0.0 0.0 0.00 0.00 0.00 79 1010.5